This is the latest recevied weather packets stored in our database for station/object K4DNM. If no packets are shown the sender has not sent any weather packets the latest 10 day(s).
| Time | Temp. | Humidity | Pressure | Rain* | Wind** | Luminosity | Snow |
|---|---|---|---|---|---|---|---|
| 1777816956 | 14.44° C | 59% | 1018.1 hPa | 0 mm | - | 651 W/m² | - |
| 1777816596 | 13.89° C | 62% | 1018.1 hPa | 0 mm | - | 634 W/m² | - |
| 1777816295 | 13.89° C | 64% | 1018 hPa | 0 mm | - | 615 W/m² | - |
| 1777816056 | 13.33° C | 63% | 1018.1 hPa | 0 mm | - | 597 W/m² | - |
| 1777815695 | 13.33° C | 61% | 1018.1 hPa | 0 mm | - | 578 W/m² | - |
| 1777815396 | 13.33° C | 65% | 1018.1 hPa | 0 mm | - | 563 W/m² | - |
| 1777815095 | 12.78° C | 64% | 1018.1 hPa | 0 mm | - | 543 W/m² | - |
| 1777814796 | 12.78° C | 70% | 1018 hPa | 0 mm | - | 527 W/m² | - |
| 1777814498 | 12.78° C | 68% | 1018.1 hPa | 0 mm | - | 507 W/m² | - |
| 1777814195 | 12.78° C | 71% | 1018 hPa | 0 mm | - | 486 W/m² | - |
| 1777813953 | 12.22° C | 76% | 1018 hPa | 0 mm | - | 469 W/m² | - |
| 1777813593 | 11.67° C | 72% | 1018.1 hPa | 0 mm | - | 450 W/m² | - |
| 1777813293 | 11.67° C | 74% | 1018.1 hPa | 0 mm | - | 431 W/m² | - |
| 1777812993 | 11.67° C | 76% | 1018.1 hPa | 0 mm | - | 415 W/m² | - |
| 1777812693 | 11.11° C | 77% | 1018.1 hPa | 0 mm | - | 394 W/m² | - |
| 1777812393 | 11.11° C | 81% | 1018.1 hPa | 0 mm | - | 375 W/m² | - |
| 1777812093 | 10.56° C | 81% | 1018.1 hPa | 0 mm | - | 353 W/m² | - |
| 1777811793 | 10.56° C | 83% | 1018 hPa | 0 mm | - | 337 W/m² | - |
| 1777811494 | 10° C | 90% | 1018 hPa | 0 mm | - | 317 W/m² | - |
| 1777811206 | 9.44° C | 94% | 1017.9 hPa | 0 mm | - | 298 W/m² | - |
| 1777810953 | 8.89° C | 97% | 1017.9 hPa | 0 mm | - | 280 W/m² | - |
| 1777810591 | 8.89° C | 97% | 1017.8 hPa | 0 mm | - | 262 W/m² | - |
| 1777810291 | 8.89° C | 100% | 1017.8 hPa | 0 mm | - | 243 W/m² | - |
| 1777809990 | 8.33° C | 99% | 1017.8 hPa | 0 mm | - | 223 W/m² | - |
| 1777809691 | 8.33° C | 99% | 1017.7 hPa | 0 mm | - | 204 W/m² | - |
* Rain latest hour (hover to see other rain measurements)
** Current wind speed in m/s (hover to see current wind gust speed)